Погода в Копейкине

Россия / Омская область     54°38′55″N   73°46′04″E
темп.,
°C
ветер,
м/с
пор.,
м/с
влажн.,
%
обл.,
%
осадки,
мм/ч
давл.,
гПа
погр.,
м
28 июля, ср
ср2800:00+14юз345914 0.0 101050
03:00+12зюз33727 0.0 100934
06:00+13юз3571100 0.0 1009111
09:00+17юз456027 0.0 1009301
12:00+23юз5535100 0.0 10082477
15:00+25юз7735100 0.0 10062811
18:00+18з247399 2.6 1007447
21:00+15ююз338799 3.4 100749
29 июля, чт
чт2900:00+14зсз249585 4.3 1007140
03:00+13з379527 1.4 1006226
06:00+11зсз4109133 1.4 1008241
09:00+14ссз57680 0.0 1009605
12:00+18зсз56450 0.0 10101709
15:00+20зсз45365 0.0 10091976
18:00+20з45345 0.0 10092214
21:00+15зюз46515 0.0 101078
30 июля, пт
пт3000:00+12зюз47585 0.0 1010110
03:00+11зюз35625 0.0 101079
06:00+11юз4106494 0.0 1011174
09:00+18зюз694885 0.0 1012524
12:00+22юз7939100 0.0 10121626
15:00+24юз793480 0.0 10112508
18:00+25юз693520 0.0 10102619
21:00+19ю4751100 0.0 1010105
31 июля, сб
сб3100:00+19з4851100 0.0 1010289
03:00+17зюз51464100 0.0 1009701
06:00+15ююв51087100 0.7 1008296
09:00+15ю71490100 2.6 1008662
12:00+17ю510828 6.1 1008592
15:00+24зсз33455 0.0 10071547
18:00+23сз5556100 0.0 1008717
21:00+18с467543 0.0 1010132
1 августа, вс
вс100:00+15с33850 0.0 101136
03:00+14ссв2291100 0.0 101116
06:00+14ссв229150 0.0 101215
09:00+20в10697 0.0 1012409
12:00+24юз125349 0.0 10111116
15:00+26юз2347100 0.0 10091828
18:00+24юв3456100 0.0 1008113
21:00+20зсз4578100 0.1 1008129